803  
ASUS43 KLMK 042010  
RWRKY  
KENTUCKY REGIONAL WEATHER ROUNDUP  
NATIONAL WEATHER SERVICE LOUISVILLE KY  
300 PM EST SUN DEC 04 2022  
 
NOTE "FAIR" INDICATES FEW OR NO CLOUDS BELOW 12,000 FEET  
WITH NO SIGNIFICANT WEATHER AND/OR S TO VISIBILITY
.  
 
KYZ001>023-026-027-061>063-070>075-042100-  
WESTERN AND SOUTH CENTRAL KENTUCKY  
 
CITY SKY/WX TMP DP RH WIND PRES REMARKS
 
PADUCAH CLOUDY 42 23 46 CALM 30.21F  
HENDERSON PTSUNNY 40 25 55 S5 30.24F  
OWENSBORO PTSUNNY 41 26 55 S6 30.24F  
HOPKINSVILLE CLOUDY 40 27 58 CALM 30.22F  
BOWLING GREEN CLOUDY 42 28 57 CALM 30.24F  
GLASGOW CLOUDY 40 31 69 NE3 30.24F  

 
 
KYZ024-025-028>034-038-045-046-053-042100-  
NORTH CENTRAL KENTUCKY  
 
CITY SKY/WX TMP DP RH WIND PRES REMARKS
 
LOUISVILLE/SDF MOSUNNY 42 20 41 SE6 30.23F  
LOUISVILLE/LOU SUNNY 41 18 39 S7 30.23F  
FORT KNOX MOSUNNY 41 20 43 SE7 30.21F  

 
 
KYZ035>037-039>044-047>052-055>060-089>105-042100-  
NORTHEAST KENTUCKY  
 
CITY SKY/WX TMP DP RH WIND PRES REMARKS
 
LEXINGTON MOSUNNY 43 24 47 SW5 30.22F  
COVINGTON MOSUNNY 41 15 35 VRB6 30.20F  
FRANKFORT SUNNY 44 22 41 CALM 30.22F  

 
 
KYZ054-064>069-076>088-106>120-042100-  
SOUTHEAST KENTUCKY  
 
CITY SKY/WX TMP DP RH WIND PRES REMARKS
 
JACKSON MOSUNNY 41 23 48 CALM 30.22F  
LONDON CLOUDY 43 27 53 CALM 30.22F  
SOMERSET CLOUDY 43 30 61 CALM 30.22F  
MIDDLESBORO CLOUDY 41 32 70 CALM 30.24F  
MONTICELLO CLOUDY 41 30 65 CALM 30.26F  

 
 
 
 
CLICK HERE TO GO TO PREVIOUS BULLETINS.

The Nexlab KY Page Main Text Page